CAPE
0 0 0 0 0 0 0 0 0 0 0 0 0 0 0 0 0 0 0 0 0 0 295 661 899 980 964 967 829 729 692 762 839 655 410 254 175 59 32 22 6 0 0 1 2 0 0 0 0
0 0 0 0 0 0 0 0 0 0 0 0 0 0 0 0 0 0 0 0 0 0 300 588 763 795 848 810 745 636 665 873 988 733 400 148 27 2 2 1 2 0 1 0 0 0 0 0 0
0 0 0 0 0 0 0 0 0 0 0 0 0 0 0 0 0 0 0 0 0 0 114 482 660 859 877 829 676 657 785 773 641 412 239 28 5 3 1 3 2 0 0 0 0 0 0 0 0
0 0 0 0 0 0 0 0 0 0 0 0 0 0 0 0 0 0 0 0 0 0 4 447 719 838 849 865 783 716 580 559 468 124 9 2 5 1 0 0 0 0 0 0 0 0 0 0 0
0 0 0 0 0 0 0 0 0 0 0 0 0 0 0 0 0 0 0 0 0 0 0 338 566 765 790 730 547 450 123 28 6 2 3 7 3 2 0 0 0 0 0 0 0 0 0 0 0
0 0 0 0 0 0 0 0 0 0 0 0 0 0 0 0 0 0 0 0 0 0 0 140 307 458 423 397 355 40 7 2 4 3 3 5 2 0 0 0 0 0 0 0 0 0 0 0 0
0 0 0 0 0 0 0 0 0 0 0 0 0 0 0 0 0 0 0 0 0 0 0 10 122 212 110 65 8 0 1 1 3 7 5 3 0 0 0 0 0 0 0 0 0 0 0 0 0
0 0 0 0 0 0 0 0 0 0 0 0 0 0 0 0 0 0 0 0 0 0 0 0 9 68 78 37 0 0 0 1 4 3 1 0 0 0 0 0 0 0 0 0 0 0 0 0 0
0 0 0 0 0 0 0 0 0 0 0 0 0 0 0 0 0 0 0 0 0 0 0 0 0 0 10 4 0 0 0 2 1 1 0 0 0 0 0 0 0 0 0 0 0 0 0 0 0
0 0 0 0 0 0 0 0 0 0 0 0 0 0 0 0 0 0 0 0 0 0 0 0 0 0 0 0 0 0 3 1 1 2 1 0 0 0 0 0 0 0 0 0 0 0 0 0 0
0 0 0 0 0 0 0 0 0 0 0 0 0 0 0 0 0 0 0 0 0 0 0 0 0 0 0 0 0 0 5 6 3 6 0 0 0 0 0 0 0 0 0 0 0 0 0 0 0
0 0 0 0 0 0 0 0 0 0 0 0 0 0 0 0 0 0 0 0 0 0 0 0 0 0 0 0 0 0 0 0 1 1 0 0 0 0 0 0 0 0 0 0 0 0 0 0 0
0 0 0 0 0 0 0 0 0 0 0 0 0 0 0 0 0 0 0 0 0 0 0 0 0 0 0 0 0 0 0 0 0 0 0 0 0 0 0 0 0 0 0 0 0 0 0 0 0
0 0 0 0 0 0 0 0 0 0 0 0 0 0 0 0 0 0 0 0 0 0 0 0 0 0 0 0 0 0 0 0 0 0 0 0 0 0 0 0 0 0 0 0 0 0 0 0 0
0 0 0 0 0 0 0 0 0 0 0 0 0 0 0 0 0 0 0 0 0 0 0 0 0 0 0 0 0 0 0 0 0 0 0 0 0 0 0 0 0 0 0 0 0 0 0 0 0
0 0 0 0 0 0 0 0 0 0 0 0 0 0 0 0 0 0 0 0 0 0 0 0 0 0 0 0 0 0 0 0 0 0 0 0 0 0 0 0 0 0 0 0 0 0 0 0 0
0 0 0 0 0 0 0 0 0 0 0 0 0 0 0 0 0 0 0 0 0 0 0 0 0 0 0 0 0 0 0 0 0 0 0 0 0 0 0 0 0 0 0 0 0 0 0 0 0
0 0 0 0 0 0 0 0 0 0 0 0 0 0 0 0 0 0 0 0 0 0 0 0 0 0 0 0 0 0 0 0 0 0 0 0 0 0 0 0 0 0 0 0 0 0 0 0 0
0 0 0 0 0 0 0 0 0 0 0 0 0 0 0 0 0 0 0 0 0 0 0 0 0 0 0 0 0 0 0 0 0 0 0 0 0 0 0 0 0 0 0 0 0 0 0 0 0
0 0 0 0 0 0 0 0 0 0 0 0 0 0 0 0 0 0 0 0 0 0 0 0 0 0 0 0 0 0 0 0 0 0 0 0 0 0 0 0 0 0 0 0 0 0 0 0 0
0 0 0 0 0 0 0 0 0 0 0 0 0 0 0 0 0 0 0 0 0 0 0 0 0 0 0 0 0 0 0 0 0 0 0 0 0 0 0 0 0 0 0 0 0 0 0 0 0
0 0 0 0 0 0 0 0 0 0 0 0 0 0 0 0 0 0 0 0 0 0 0 0 0 0 0 0 0 0 0 0 0 0 0 0 0 0 0 0 0 0 0 0 0 0 0 0 0
0 0 0 0 0 0 0 0 0 0 0 0 0 0 0 0 0 0 0 0 0 0 0 0 0 0 0 0 0 0 0 0 0 0 0 0 0 0 0 0 0 0 0 0 0 0 0 0 0
0 0 0 0 0 0 0 0 0 0 0 0 0 0 0 0 0 0 0 0 0 0 0 0 0 0 0 0 0 0 0 0 0 0 0 0 0 0 0 0 0 0 0 0 0 0 0 0 0
0 0 0 0 0 0 0 0 0 0 0 0 0 0 0 0 0 0 0 0 0 0 0 0 0 0 0 0 0 0 0 0 0 0 0 0 0 0 0 0 0 0 0 0 0 0 0 0 0
0 0 0 0 0 0 0 0 0 0 0 0 0 0 0 0 0 0 0 0 0 0 0 0 0 0 0 0 0 0 0 0 0 0 0 0 0 0 0 0 0 0 0 0 0 0 0 0 0
0 0 0 0 0 0 0 0 0 0 0 0 0 0 0 0 0 0 0 0 0 0 0 0 0 0 0 0 0 0 0 0 0 0 0 0 0 0 0 0 0 0 0 0 0 0 0 0 0
0 0 0 0 0 0 0 0 0 0 0 0 0 0 0 0 0 0 0 0 0 0 0 0 0 0 0 0 0 0 0 0 0 0 0 0 0 0 0 0 0 0 0 0 0 0 0 0 0
0 0 0 0 1 4 0 0 0 0 0 0 0 0 0 0 0 0 0 0 0 0 0 0 0 0 0 0 0 0 0 0 0 0 0 0 0 0 0 0 0 0 0 0 0 0 0 0 0
0 0 8 9 0 0 4 1 0 0 0 0 0 0 0 0 0 0 0 0 0 0 0 0 0 0 0 0 0 0 0 0 0 0 0 0 0 0 0 0 0 0 0 0 0 0 0 0 0
CIN
0 0 0 0 0 0 0 0 0 0 0 0 0 0 0 0 0 0 0 0 0 0 -343 -169 -87 -41 -30 -11 -16 -26 -18 -1 0 -6 -45 -81 -87 -129 -136 -117 -123 0 0 0 0 0 0 0 0
0 0 0 0 0 0 0 0 0 0 0 0 0 0 0 0 0 0 0 0 0 0 -332 -182 -108 -87 -60 -45 -44 -55 -24 -2 0 -1 -40 -140 -186 -1 -1 0 0 0 0 0 0 0 0 0 0
0 0 0 0 0 0 0 0 0 0 0 0 0 0 0 0 0 0 0 0 0 0 -398 -217 -146 -63 -47 -43 -63 -62 -24 -14 -24 -66 -118 -203 -2 0 -1 0 0 0 0 0 0 0 0 0 0
0 0 0 0 0 0 0 0 0 0 0 0 0 0 0 0 0 0 0 0 0 0 -353 -233 -125 -67 -51 -41 -48 -51 -72 -75 -94 -220 -353 -3 -2 -2 0 0 0 0 0 0 0 0 0 0 0
0 0 0 0 0 0 0 0 0 0 0 0 0 0 0 0 0 0 0 0 0 0 0 -258 -170 -91 -66 -64 -105 -127 -232 -283 -155 -1 -1 -3 -2 0 0 0 0 0 0 0 0 0 0 0 0
0 0 0 0 0 0 0 0 0 0 0 0 0 0 0 0 0 0 0 0 0 0 0 -326 -247 -184 -185 -171 -158 -304 -365 -1 -1 -1 -1 0 0 0 0 0 0 0 0 0 0 0 0 0 0
0 0 0 0 0 0 0 0 0 0 0 0 0 0 0 0 0 0 0 0 0 0 0 -496 -310 -248 -289 -301 -274 0 0 -1 -1 -1 -1 -1 0 0 0 0 0 0 0 0 0 0 0 0 0
0 0 0 0 0 0 0 0 0 0 0 0 0 0 0 0 0 0 0 0 0 0 0 0 -499 -357 -309 -329 0 0 0 -1 -2 -2 -2 -3 0 0 0 0 0 0 0 0 0 0 0 0 0
0 0 0 0 0 0 0 0 0 0 0 0 0 0 0 0 0 0 0 0 0 0 0 0 0 0 -330 -297 0 0 0 -1 -1 -2 0 0 0 0 0 0 0 0 0 0 0 0 0 0 0
0 0 0 0 0 0 0 0 0 0 0 0 0 0 0 0 0 0 0 0 0 0 0 0 0 0 0 0 0 0 0 0 -2 0 0 0 0 0 0 0 0 0 0 0 0 0 0 0 0
0 0 0 0 0 0 0 0 0 0 0 0 0 0 0 0 0 0 0 0 0 0 0 0 0 0 0 0 0 0 0 -1 0 0 0 0 0 0 0 0 0 0 0 0 0 0 0 0 0
0 0 0 0 0 0 0 0 0 0 0 0 0 0 0 0 0 0 0 0 0 0 0 0 0 0 0 0 0 0 0 0 0 0 0 0 0 0 0 0 0 0 0 0 0 0 0 0 0
0 0 0 0 0 0 0 0 0 0 0 0 0 0 0 0 0 0 0 0 0 0 0 0 0 0 0 0 0 0 0 0 0 0 0 0 0 0 0 0 0 0 0 0 0 0 0 0 0
0 0 0 0 0 0 0 0 0 0 0 0 0 0 0 0 0 0 0 0 0 0 0 0 0 0 0 0 0 0 0 0 0 0 0 0 0 0 0 0 0 0 0 0 0 0 0 0 0
0 0 0 0 0 0 0 0 0 0 0 0 0 0 0 0 0 0 0 0 0 0 0 0 0 0 0 0 0 0 0 0 0 0 0 0 0 0 0 0 0 0 0 0 0 0 0 0 0
0 0 0 0 0 0 0 0 0 0 0 0 0 0 0 0 0 0 0 0 0 0 0 0 0 0 0 0 0 0 0 0 0 0 0 0 0 0 0 0 0 0 0 0 0 0 0 0 0
0 0 0 0 0 0 0 0 0 0 0 0 0 0 0 0 0 0 0 0 0 0 0 0 0 0 0 0 0 0 0 0 0 0 0 0 0 0 0 0 0 0 0 0 0 0 0 0 0
0 0 0 0 0 0 0 0 0 0 0 0 0 0 0 0 0 0 0 0 0 0 0 0 0 0 0 0 0 0 0 0 0 0 0 0 0 0 0 0 0 0 0 0 0 0 0 0 0
0 0 0 0 0 0 0 0 0 0 0 0 0 0 0 0 0 0 0 0 0 0 0 0 0 0 0 0 0 0 0 0 0 0 0 0 0 0 0 0 0 0 0 0 0 0 0 0 0
0 0 0 0 0 0 0 0 0 0 0 0 0 0 0 0 0 0 0 0 0 0 0 0 0 0 0 0 0 0 0 0 0 0 0 0 0 0 0 0 0 0 0 0 0 0 0 0 0
0 0 0 0 0 0 0 0 0 0 0 0 0 0 0 0 0 0 0 0 0 0 0 0 0 0 0 0 0 0 0 0 0 0 0 0 0 0 0 0 0 0 0 0 0 0 0 0 0
0 0 0 0 0 0 0 0 0 0 0 0 0 0 0 0 0 0 0 0 0 0 0 0 0 0 0 0 0 0 0 0 0 0 0 0 0 0 0 0 0 0 0 0 0 0 0 0 0
0 0 0 0 0 0 0 0 0 0 0 0 0 0 0 0 0 0 0 0 0 0 0 0 0 0 0 0 0 0 0 0 0 0 0 0 0 0 0 0 0 0 0 0 0 0 0 0 0
0 0 0 0 0 0 0 0 0 0 0 0 0 0 0 0 0 0 0 0 0 0 0 0 0 0 0 0 0 0 0 0 0 0 0 0 0 0 0 0 0 0 0 0 0 0 0 0 0
0 0 0 0 0 0 0 0 0 0 0 0 0 0 0 0 0 0 0 0 0 0 0 0 0 0 0 0 0 0 0 0 0 0 0 0 0 0 0 0 0 0 0 0 0 0 0 0 0
0 0 0 0 0 0 0 0 0 0 0 0 0 0 0 0 0 0 0 0 0 0 0 0 0 0 0 0 0 0 0 0 0 0 0 0 0 0 0 0 0 0 0 0 0 0 0 0 0
0 0 0 0 0 0 0 0 0 0 0 0 0 0 0 0 0 0 0 0 0 0 0 0 0 0 0 0 0 0 0 0 0 0 0 0 0 0 0 0 0 0 0 0 0 0 0 0 0
0 0 0 0 0 0 0 0 0 0 0 0 0 0 0 0 0 0 0 0 0 0 0 0 0 0 0 0 0 0 0 0 0 0 0 0 0 0 0 0 0 0 0 0 0 0 0 0 0
0 0 0 0 -1 -2 -1 0 0 0 0 0 0 0 0 0 0 0 0 0 0 0 0 0 0 0 0 0 0 0 0 0 0 0 0 0 0 0 0 0 0 0 0 0 0 0 0 0 0
0 0 -2 -9 -1 0 -21 -5 0 0 0 0 0 0 0 0 0 0 0 0 0 0 0 0 0 0 0 0 0 0 0 0 0 0 0 0 0 0 0 0 0 0 0 0 0 0 0 0 0
Wind_Speed
13 12 12 12 13 15 14 15 13 12 13 14 14 13 11 10 11 14 14 12 13 15 17 21 21 20 20 19 17 15 15 15 13 8 6 8 9 11 12 12 12 13 13 13 14 14 15 15 16
13 13 13 13 15 15 18 16 15 14 13 13 12 11 10 9 10 9 11 11 12 14 14 16 19 19 18 17 18 17 16 13 9 7 7 7 10 13 14 13 13 12 12 13 14 15 15 16 16
14 13 13 15 16 16 16 16 15 14 11 12 12 11 10 11 11 11 12 12 11 13 13 11 14 15 15 15 16 17 18 9 7 6 6 10 11 11 12 11 11 11 12 14 14 14 15 15 16
14 16 17 14 13 11 13 12 11 9 13 11 11 10 10 9 11 11 12 12 12 13 13 9 10 11 11 11 11 7 5 4 4 8 10 11 9 9 10 10 11 11 12 13 13 13 14 14 15
16 15 15 15 14 14 11 10 11 12 13 13 12 12 11 11 11 12 10 11 12 13 13 11 10 9 7 8 9 9 4 6 11 12 11 9 9 8 9 10 10 10 11 11 12 12 13 14 15
16 16 15 15 16 15 14 14 14 13 13 13 12 10 13 15 14 12 11 10 11 13 13 13 12 10 9 8 8 2 3 3 1 3 6 8 9 10 10 9 9 9 9 10 10 11 12 13 14
16 16 16 16 16 18 15 15 15 15 14 13 14 13 14 14 15 14 11 9 8 11 12 13 14 13 12 8 6 4 3 2 0 1 4 5 8 10 10 10 9 8 8 8 9 10 12 13 14
16 16 16 15 18 18 14 15 14 14 17 17 15 12 15 18 16 15 12 7 6 8 10 12 13 15 15 12 11 8 7 5 2 3 4 5 7 7 9 10 9 8 8 9 9 10 12 13 14
15 17 18 19 17 19 16 18 16 17 17 16 14 14 20 19 17 14 11 6 3 4 9 10 11 13 14 13 11 10 9 9 5 2 2 4 5 6 7 8 8 8 8 9 10 11 12 13 14
16 19 21 17 18 22 21 19 21 19 16 18 17 11 11 16 15 12 8 5 2 4 7 7 9 10 11 9 8 9 7 8 6 6 4 2 3 4 6 7 7 8 9 10 11 11 12 14 15
16 19 20 20 19 21 23 22 19 19 15 22 19 22 14 12 10 9 7 7 6 5 5 7 7 7 8 7 6 6 6 6 6 6 4 3 3 4 4 5 5 7 7 9 11 12 14 15 15
21 19 20 24 22 24 26 24 22 14 14 26 25 12 15 8 7 7 7 8 8 7 8 8 8 8 9 8 8 7 7 7 7 7 7 5 5 5 5 5 4 5 6 9 10 12 13 14 15
19 25 23 22 23 25 27 19 17 13 18 11 13 11 9 8 10 8 7 12 12 11 10 10 10 11 11 11 11 11 11 10 10 9 9 9 8 7 6 7 7 7 8 9 10 11 12 13 14
25 27 29 27 26 23 26 16 24 25 20 16 11 8 7 6 7 7 8 7 9 11 12 11 12 13 13 13 13 14 14 13 13 12 12 12 11 10 10 10 9 9 9 10 12 12 12 13 13
27 34 34 27 27 25 25 28 17 12 29 10 11 8 20 11 16 14 24 22 18 14 13 12 13 13 15 15 15 15 16 16 16 15 15 14 14 13 12 12 12 12 12 11 11 12 13 13 13
30 30 35 28 24 27 25 38 41 34 31 39 22 35 38 35 32 39 38 31 23 19 17 15 13 14 16 17 17 17 17 18 19 19 19 18 17 16 15 15 14 13 14 13 13 13 13 14 14
27 37 31 39 26 31 27 46 35 37 45 41 38 34 32 37 40 33 25 21 21 17 17 16 15 16 17 18 18 19 20 20 20 20 20 20 20 19 19 18 17 16 15 15 15 15 15 15 15
40 38 34 37 35 36 41 53 50 46 43 36 38 36 37 35 33 30 27 22 19 18 16 17 17 17 17 18 19 20 22 24 24 24 23 23 23 23 22 21 19 18 18 17 17 18 17 17 16
37 38 42 42 43 51 50 50 47 47 45 37 41 36 29 27 28 26 26 26 24 21 19 18 18 18 17 20 22 24 25 25 25 26 27 26 26 25 25 24 22 21 21 21 19 19 19 19 15
35 39 42 40 35 35 49 53 52 41 34 33 33 29 25 24 24 25 25 26 26 26 26 26 26 24 19 19 21 24 27 29 30 29 28 28 29 29 28 27 26 25 24 24 23 21 21 22 17
35 37 43 42 41 39 45 49 37 31 30 26 23 22 22 22 25 26 27 29 28 28 30 29 27 24 23 23 24 25 27 28 29 31 34 33 33 34 34 32 30 29 27 27 25 24 23 23 22
36 29 31 37 38 40 38 60 44 38 32 35 27 23 22 24 25 27 30 30 29 30 30 30 30 30 28 26 27 29 30 32 32 33 34 33 33 34 35 35 33 32 31 30 28 26 27 25 25
29 27 30 34 41 41 35 44 38 33 38 29 19 22 24 29 27 26 31 31 30 30 31 31 32 32 31 29 30 31 33 36 35 34 35 33 34 34 36 36 35 35 34 34 32 30 30 30 28
27 33 36 36 37 42 37 35 40 36 22 17 29 31 33 30 27 28 32 33 33 34 35 35 35 34 33 32 31 33 36 36 36 35 36 36 34 33 34 36 38 37 36 35 34 33 32 32 31
28 35 43 45 42 48 38 46 36 37 40 40 44 41 38 36 35 35 37 38 38 39 38 36 37 38 37 36 36 37 37 38 39 39 37 37 35 33 33 34 37 39 39 37 36 36 35 34 34
34 35 39 49 55 63 52 57 46 32 36 39 36 31 30 32 34 37 37 37 38 39 39 40 39 39 40 40 39 39 40 40 41 40 39 38 37 35 32 33 35 38 38 38 39 39 38 36 36
35 38 35 46 51 59 61 63 54 41 30 31 34 35 38 39 39 39 40 40 39 40 41 41 42 42 41 42 43 42 42 42 43 43 41 41 37 35 33 34 36 37 37 39 39 41 41 38 36
34 36 45 42 54 61 61 61 59 49 50 43 43 41 40 41 41 41 42 42 41 41 41 42 42 44 44 44 43 44 44 45 46 46 44 42 41 40 37 36 39 40 40 41 41 41 41 40 38
45 45 42 46 47 58 64 65 49 47 40 43 42 41 41 41 42 42 43 43 42 43 43 43 44 45 45 46 45 46 46 46 46 46 46 45 43 41 40 39 38 38 39 38 39 40 39 41 41
45 49 46 51 52 49 58 68 59 47 38 40 43 43 42 42 43 44 45 45 45 45 46 45 44 44 45 46 46 45 45 46 46 46 45 44 44 40 40 39 38 37 37 36 38 39 39 41 43
Wind_Direction
156 162 154 137 119 110 105 105 119 115 108 109 104 115 130 155 150 215 39 85 78 117 128 141 142 139 137 128 124 116 119 117 105 65 352 317 311 305 303 311 323 322 323 327 323 327 328 326 321
157 150 137 124 107 97 82 94 98 102 101 108 115 114 125 139 135 128 74 92 88 114 120 132 144 145 140 137 137 133 128 113 84 60 45 355 320 292 294 299 304 317 330 329 322 322 326 324 326
141 149 127 91 84 76 76 82 84 84 103 100 93 112 108 104 106 106 61 94 97 119 123 122 136 140 140 138 143 143 147 106 87 62 8 322 313 317 315 330 334 332 333 323 327 333 331 328 325
110 75 57 72 71 84 77 82 85 87 71 99 99 89 108 118 88 77 81 102 111 124 127 116 127 137 138 136 133 117 98 74 45 322 313 315 336 331 329 332 331 331 329 332 337 340 338 337 334
28 48 44 45 47 49 65 73 66 58 50 57 71 60 62 79 66 48 66 113 126 133 134 128 130 133 131 137 138 133 114 311 298 302 308 321 325 333 339 337 336 338 342 346 343 343 345 343 344
13 19 24 24 20 28 41 43 42 44 39 37 43 50 46 39 44 49 56 101 120 139 139 140 143 141 141 143 147 139 134 133 36 340 324 317 317 319 323 331 337 340 344 348 352 354 354 353 346
359 360 3 3 7 7 20 29 28 22 20 20 13 19 17 15 14 18 41 76 100 131 141 150 154 156 155 152 157 163 162 167 208 321 322 325 319 315 317 319 323 335 347 354 354 352 351 347 342
357 352 352 356 352 352 7 5 8 5 357 353 353 9 4 352 358 2 12 52 91 127 148 156 160 166 169 167 170 172 171 173 196 300 308 312 318 320 317 315 319 328 334 338 343 346 345 347 344
352 339 335 338 343 344 349 345 349 344 339 340 340 337 330 334 340 349 354 13 63 138 162 164 167 170 172 174 174 178 180 179 182 236 285 305 312 314 315 314 316 321 328 333 336 339 341 342 340
335 329 327 335 335 333 334 334 334 335 331 325 325 322 327 330 329 333 334 331 276 194 184 181 180 179 178 179 182 185 189 187 190 184 188 200 297 310 312 312 310 312 314 319 324 328 331 330 331
332 324 328 327 327 329 327 327 331 329 328 324 325 327 331 324 317 311 298 286 265 255 248 214 210 204 197 202 206 206 201 200 207 202 217 235 276 303 303 311 307 309 309 314 316 318 319 322 325
321 319 320 324 326 324 321 325 323 315 304 317 319 311 321 299 280 276 273 284 284 267 250 248 232 231 223 240 233 237 231 228 228 218 216 251 270 280 281 287 285 297 302 310 314 316 320 321 322
316 318 320 321 321 318 318 314 315 298 313 291 313 313 264 267 247 250 274 306 298 283 274 255 238 234 237 235 249 248 250 251 251 250 243 248 254 258 264 275 283 290 298 301 306 311 315 318 320
321 317 315 318 318 317 315 306 321 323 331 332 325 295 304 290 294 300 308 284 289 292 281 265 248 242 244 241 243 255 257 255 252 251 248 239 252 260 267 270 270 277 285 296 301 304 310 314 317
317 311 312 316 320 319 320 312 309 298 319 301 267 305 325 270 315 307 310 308 305 297 290 267 260 252 243 242 243 252 258 256 252 251 246 243 246 250 254 263 270 275 280 285 292 297 303 307 312
314 314 309 318 325 320 316 260 278 313 317 290 258 262 265 260 253 293 294 301 302 296 290 283 271 252 241 245 249 252 254 257 261 262 262 253 251 253 257 264 262 267 275 280 283 285 290 297 302
312 305 311 308 320 314 310 284 308 309 299 270 268 262 258 269 278 308 314 313 310 302 293 284 270 257 250 252 255 255 257 256 255 255 256 253 251 252 256 260 263 262 265 270 276 281 285 288 294
302 305 308 308 313 307 302 281 281 280 293 263 268 267 301 307 304 318 323 326 324 319 308 297 288 275 269 268 263 263 265 264 262 259 258 255 255 254 255 259 258 256 260 262 267 273 280 284 287
302 303 302 305 306 293 291 291 290 290 291 307 296 301 309 313 317 326 327 327 329 329 325 317 306 297 283 274 270 269 264 264 261 260 257 254 254 249 249 255 254 254 256 259 259 267 268 277 279
298 300 302 307 314 310 294 286 294 299 307 307 307 308 314 319 328 335 338 338 334 329 324 318 311 307 300 292 284 280 280 275 272 267 262 255 254 252 251 253 254 252 255 256 256 257 262 274 262
296 298 299 301 308 309 304 296 308 313 316 320 324 319 314 321 328 335 337 336 332 328 324 321 319 315 307 298 294 290 288 285 279 271 269 263 260 257 255 254 255 254 253 253 252 251 254 262 262
295 302 303 303 306 307 314 290 305 309 309 316 319 321 313 319 324 329 329 327 327 326 327 325 321 317 313 307 299 291 289 287 285 282 277 271 260 256 253 252 254 255 256 255 252 252 255 258 259
302 311 307 304 300 305 310 303 311 312 310 317 335 333 334 327 330 333 331 331 330 328 326 323 323 322 317 312 305 301 294 291 290 288 284 276 271 261 257 252 251 251 253 256 254 251 252 256 258
307 306 304 301 299 295 305 303 307 316 321 327 329 328 332 337 337 328 330 332 331 331 328 324 321 320 319 316 312 305 301 297 292 288 286 282 277 269 260 256 254 253 253 250 252 252 251 253 259
302 302 299 294 292 290 302 298 295 304 305 307 310 315 319 322 323 323 324 324 325 326 327 327 325 322 320 315 310 307 304 301 296 291 288 282 279 275 267 260 255 253 253 253 252 252 251 250 253
295 294 291 293 290 292 294 288 295 305 307 312 317 322 325 327 327 326 328 330 329 329 329 327 326 324 322 318 313 307 304 301 298 295 291 286 281 277 272 265 261 257 254 252 253 254 253 250 251
298 291 296 291 290 291 289 289 295 293 304 311 314 316 315 319 320 322 323 326 326 326 326 325 324 322 321 319 316 311 305 301 298 295 292 288 284 281 275 270 264 260 255 251 252 253 253 251 249
295 300 292 291 290 286 286 287 288 294 299 302 304 307 312 316 318 319 320 320 322 323 323 323 323 321 318 317 316 312 308 303 299 296 293 290 285 281 278 272 268 264 259 254 251 252 253 252 250
294 291 289 290 285 285 286 284 294 300 303 302 304 307 312 315 317 318 318 319 320 321 321 320 320 319 318 317 315 312 310 309 304 299 295 290 287 283 279 275 271 265 260 255 249 248 249 249 249
291 289 287 285 286 284 286 284 292 297 303 306 306 306 310 313 316 317 317 318 319 318 318 320 319 316 315 314 313 313 313 312 310 306 300 295 290 287 283 278 274 268 261 256 253 248 248 247 246